Regional Weather Roundup
Issued by NWS

Home | Current Version | Previous Version | Graphics & Text | Print | Product List | Glossary On
Versions: 1 2 3 4 5 6 7 8 9 10 11 12 13 14 15 16 17 18 19 20 21 22 23 24 25 26 27 28 29 30 31 32 33 34 35 36 37 38 39 40 41 42 43 44 45 46 47 48 49 50
130
ASUS43 KDMX 192306
RWRIA

WEATHER ROUNDUP FOR IOWA
NATIONAL WEATHER SERVICE DES MOINES IA
600 PM CDT THU APR 19 2018

NOTE: "FAIR" INDICATES FEW OR NO CLOUDS BELOW 12,000 FEET WITH NO
SIGNIFICANT WEATHER AND/OR OBSTRUCTIONS TO VISIBILITY.

* - THESE STATIONS ARE NOT NWS STATIONS...THUS NOT UNDER NWS
QUALITY CONTROL.  THEY ALSO DO NOT REPORT WEATHER SUCH
AS PRECIPITATION OR FOG.

IAZ001>003-012>014-020>022-031>034-043>046-200000-
   NORTHWEST IOWA

CITY           SKY/WX    TMP DP  RH WIND       PRES   REMARKS
CARROLL *      SUNNY     50  28  43 E10       30.43S
CHEROKEE *     SUNNY     39  27  60 E6        30.46F WCI  35
DENISON *      SUNNY     52  30  43 VRB6G14   30.43F
LE MARS *      SUNNY     43  30  61 NE12      30.45S
ORANGE CITY *  SUNNY     41  30  65 E5        30.45S
SHELDON *      SUNNY     41  30  65 VRB3      30.44F
SIOUX CITY     SUNNY     51  36  56 NE14      30.41F
SPENCER        SUNNY     38  25  59 S6        30.46F WCI  33
STORM LAKE *   SUNNY     37  27  65 E8        30.45S WCI  31
$$

IAZ055>058-069>071-079>083-090>094-200000-
   SOUTHWEST IOWA

CITY           SKY/WX    TMP DP  RH WIND       PRES   REMARKS
ATLANTIC *     SUNNY     55  23  28 VRB7      30.40S
AUDUBON *      SUNNY     54  25  32 NE8       30.42F
CLARINDA *     SUNNY     59  27  29 NE6       30.40F
COUNCIL BLFS * SUNNY     55  28  35 CALM      30.38S
CRESTON *      SUNNY     55  23  28 VRB6      30.41S
HARLAN  *      SUNNY     55  25  30 E10       30.43F
LAMONI         SUNNY     55  26  32 E8        30.39F
RED OAK *      SUNNY     57  25  28 S5G13     30.39S
SHENANDOAH *   SUNNY     59  27  29 E6G14     30.38F
$$

IAZ047>049-059>061-072>074-084-200000-
   CENTRAL IOWA

CITY           SKY/WX    TMP DP  RH WIND       PRES   REMARKS
AMES           SUNNY     49  27  42 NE5       30.44F
ANKENY *       SUNNY     52  27  37 NE8       30.44F
BOONE *        SUNNY     48  27  43 NE7G13    30.43F
CHARITON *     SUNNY     54  27  35 NE7       30.41F
DES MOINES     MOSUNNY   53  25  33 E7        30.43F
GRINNELL*      SUNNY     50  26  38 NE8       30.44F
KNOXVILLE *    SUNNY     52  23  32 NE8       30.41F
MARSHALLTOWN   SUNNY     48  28  46 NE10      30.44F
NEWTON *       SUNNY     50  27  40 N8G16     30.43F
PELLA *        SUNNY     54  24  31 E5        30.43F
PERRY *        FAIR      50  20  30 E7        30.43S
$$

IAZ004>006-015-016-023>025-035-036-200000-
   NORTH CENTRAL IOWA

CITY           SKY/WX    TMP DP  RH WIND       PRES   REMARKS
ALGONA *       SUNNY     39  19  45 NE5       30.47S
CLARION *      SUNNY     41  28  60 CALM      30.46S
ESTHERVILLE    SUNNY     36  26  67 CALM      30.46S
FORT DODGE *   SUNNY     42  27  55 NE9       30.46S
MASON CITY     SUNNY     42  25  50 NE3       30.47S
FOREST CITY *  FAIR      41  23  48 CALM      30.46S
WEBSTER CITY * SUNNY     46  27  46 NE8       30.43F
IOWA FALLS *   FAIR      45  28  50 NE8       30.46F
$$

IAZ007>011-017>019-026>030-037>042-050>054-066-200000-
   NORTHEAST IOWA

CITY           SKY/WX    TMP DP  RH WIND       PRES   REMARKS
CEDAR RAPIDS   FAIR      52  23  32 VRB6      30.42F
CHARLES CITY * FAIR      41  27  56 N6        30.46S
CLINTON *      FAIR      52  27  38 N9        30.44S
DECORAH *      FAIR      43  23  45 NW7       30.43F
DUBUQUE        FAIR      48  24  39 N7        30.43F
MONTICELLO *   FAIR      50  27  40 NW7       30.43F
OELWEIN *      FAIR      45  27  49 N9        30.45F
WATERLOO       FAIR      46  21  37 N9        30.45F
$$

IAZ064-065-067-068-078-200000-
   EAST CENTRAL IOWA

CITY           SKY/WX    TMP DP  RH WIND       PRES   REMARKS
DAVENPORT      FAIR      53  25  33 N10       30.45S
IOWA CITY      FAIR      54  23  30 N8        30.44F
MT. PLEASANT * SUNNY     54  21  28 N9        30.42F
MUSCATINE *    FAIR      55  21  26 N9        30.43F
QUAD CITIES    FAIR      55  26  32 NW9       30.42S
$$

IAZ062-063-075>077-085>089-095>099-200000-
   SOUTHEAST IOWA

CITY           SKY/WX    TMP DP  RH WIND       PRES   REMARKS
BURLINGTON     SUNNY     56  22  26 NE7       30.41F
FAIRFIELD *    SUNNY     54  23  30 N6        30.42S
FORT MADISON * SUNNY     55  27  33 NE6       30.42S
KEOKUK *       SUNNY     55  25  30 NE8       30.41S
OSKALOOSA *    FAIR      54  22  28 NE6       30.42F
CENTERVILLE *    N/A     54  27  35 NE3       30.42F
OTTUMWA        SUNNY     55  22  27 NE7       30.41F
WASHINGTON *   SUNNY     55  23  28 N7        30.43F
$$

ABBREVIATIONS USED IN REMARKS
   TC - TEMPERATURES IN CELSIUS
  WCI - WIND CHILL INDEX
   HX - HEAT INDEX
  VSB - VISIBILITY
$$





USA.gov is the U.S. government's official web portal to all federal, state and local government web resources and services.